Time,TemperatureF,DewpointF,PressureIn,WindDirection,WindDirectionDegrees,WindSpeedMPH,WindSpeedGustMPH,Humidity,HourlyPrecipIn,Conditions,Clouds,dailyrainin,SolarRadiationWatts/m^2,SoftwareType,DateUTC
2013-07-06 00:01:00,74.0,64.0,29.67,ESE,109,0.0,0.0,72,0.00,,,0.02,0.000000,,2013-07-06 07:01:00,
2013-07-06 00:12:00,74.0,64.0,29.67,ESE,109,0.0,1.0,72,0.00,,,0.02,0.000000,,2013-07-06 07:12:00,
2013-07-06 00:33:00,73.0,63.0,29.66,ESE,109,0.0,0.0,72,0.00,,,0.02,0.000000,,2013-07-06 07:33:00,
2013-07-06 00:43:00,73.0,64.0,29.66,ESE,109,0.0,0.0,74,0.00,,,0.02,0.000000,,2013-07-06 07:43:00,
2013-07-06 00:52:00,73.0,64.0,29.66,ESE,109,0.0,1.0,73,0.00,,,0.02,0.000000,,2013-07-06 07:52:00,
2013-07-06 01:02:00,73.0,63.0,29.66,ESE,109,0.0,0.0,72,0.00,,,0.02,0.000000,,2013-07-06 08:02:00,
2013-07-06 01:11:00,73.0,64.0,29.66,ESE,109,0.0,0.0,73,0.00,,,0.02,0.000000,,2013-07-06 08:11:00,
2013-07-06 01:21:00,73.0,64.0,29.67,ESE,109,0.0,1.0,73,0.00,,,0.02,0.000000,,2013-07-06 08:21:00,
2013-07-06 01:33:00,72.0,63.0,29.67,ESE,109,0.0,1.0,73,0.00,,,0.02,0.000000,,2013-07-06 08:33:00,
2013-07-06 01:43:00,73.0,64.0,29.67,ESE,107,0.0,2.0,73,0.00,,,0.02,0.000000,,2013-07-06 08:43:00,
2013-07-06 01:54:00,74.0,64.0,29.67,East,81,0.0,2.0,71,0.00,,,0.02,0.000000,,2013-07-06 08:54:00,
2013-07-06 02:02:00,74.0,64.0,29.67,NNW,343,1.0,2.0,70,0.00,,,0.02,0.000000,,2013-07-06 09:02:00,
2013-07-06 02:11:00,74.0,64.0,29.67,NNW,343,0.0,2.0,70,0.00,,,0.02,0.000000,,2013-07-06 09:11:00,
2013-07-06 02:22:00,74.0,64.0,29.67,NNW,343,0.0,2.0,70,0.00,,,0.02,0.000000,,2013-07-06 09:22:00,
2013-07-06 02:33:00,74.0,63.0,29.66,NNW,343,0.0,0.0,69,0.00,,,0.02,0.000000,,2013-07-06 09:33:00,
2013-07-06 02:43:00,74.0,63.0,29.66,NNW,343,0.0,0.0,69,0.00,,,0.02,0.000000,,2013-07-06 09:43:00,
2013-07-06 02:52:00,73.0,63.0,29.66,NNW,343,0.0,1.0,72,0.00,,,0.02,0.000000,,2013-07-06 09:52:00,
2013-07-06 03:02:00,72.0,62.0,29.66,NNW,343,0.0,0.0,71,0.00,,,0.02,0.000000,,2013-07-06 10:02:00,
2013-07-06 03:11:00,72.0,62.0,29.66,NNW,343,0.0,0.0,71,0.00,,,0.02,0.000000,,2013-07-06 10:11:00,
2013-07-06 03:21:00,73.0,63.0,29.66,NNE,26,0.0,2.0,70,0.00,,,0.02,0.000000,,2013-07-06 10:21:00,
2013-07-06 03:33:00,73.0,63.0,29.66,East,85,1.0,4.0,72,0.00,,,0.02,0.000000,,2013-07-06 10:33:00,
2013-07-06 03:42:00,73.0,63.0,29.66,East,85,1.0,4.0,72,0.00,,,0.02,0.000000,,2013-07-06 10:42:00,
2013-07-06 03:53:00,72.0,62.0,29.66,East,85,0.0,4.0,71,0.00,,,0.02,0.000000,,2013-07-06 10:53:00,
2013-07-06 04:01:00,72.0,62.0,29.65,East,86,0.0,1.0,71,0.00,,,0.02,0.000000,,2013-07-06 11:01:00,
2013-07-06 04:11:00,72.0,62.0,29.65,East,86,0.0,0.0,71,0.00,,,0.02,0.000000,,2013-07-06 11:11:00,
2013-07-06 04:21:00,72.0,62.0,29.65,East,86,0.0,0.0,72,0.00,,,0.02,0.000000,,2013-07-06 11:21:00,
2013-07-06 04:32:00,71.0,62.0,29.65,East,86,0.0,1.0,73,0.00,,,0.02,0.000000,,2013-07-06 11:32:00,
2013-07-06 04:42:00,71.0,62.0,29.65,East,86,0.0,0.0,73,0.00,,,0.02,0.000000,,2013-07-06 11:42:00,
2013-07-06 04:52:00,71.0,62.0,29.65,East,86,0.0,0.0,73,0.00,,,0.02,0.000000,,2013-07-06 11:52:00,
2013-07-06 05:01:00,71.0,62.0,29.65,East,86,0.0,0.0,72,0.00,,,0.02,0.000000,,2013-07-06 12:01:00,
2013-07-06 05:11:00,71.0,62.0,29.65,East,86,0.0,0.0,72,0.00,,,0.02,0.000000,,2013-07-06 12:11:00,
2013-07-06 05:21:00,71.0,61.0,29.66,East,86,0.0,0.0,71,0.00,,,0.02,0.000000,,2013-07-06 12:21:00,
2013-07-06 05:33:00,71.0,62.0,29.66,East,86,0.0,0.0,72,0.00,,,0.02,0.000000,,2013-07-06 12:33:00,
2013-07-06 05:43:00,71.0,62.0,29.66,East,86,0.0,0.0,72,0.00,,,0.02,0.000000,,2013-07-06 12:43:00,
2013-07-06 05:52:00,70.0,61.0,29.67,East,86,0.0,0.0,72,0.00,,,0.02,16.000000,,2013-07-06 12:52:00,
2013-07-06 06:11:00,70.0,61.0,29.68,East,86,0.0,0.0,72,0.00,,,0.02,42.000000,,2013-07-06 13:11:00,
2013-07-06 06:33:00,71.0,62.0,29.68,East,86,0.0,0.0,72,0.00,,,0.02,77.000000,,2013-07-06 13:33:00,
2013-07-06 06:52:00,73.0,63.0,29.69,East,86,0.0,0.0,71,0.00,,,0.02,128.000000,,2013-07-06 13:52:00,
2013-07-06 07:02:00,75.0,64.0,29.69,East,85,0.0,0.0,69,0.00,,,0.02,178.000000,,2013-07-06 14:02:00,
2013-07-06 07:11:00,76.0,65.0,29.69,East,85,0.0,0.0,68,0.00,,,0.02,206.000000,,2013-07-06 14:11:00,
2013-07-06 07:42:00,82.0,64.0,29.70,East,84,0.0,1.0,54,0.00,,,0.02,148.000000,,2013-07-06 14:42:00,
2013-07-06 07:53:00,82.0,63.0,29.70,East,84,0.0,1.0,53,0.00,,,0.02,195.000000,,2013-07-06 14:53:00,
2013-07-06 08:02:00,83.0,64.0,29.71,East,84,0.0,0.0,52,0.00,,,0.02,276.000000,,2013-07-06 15:02:00,
2013-07-06 08:11:00,84.0,63.0,29.71,East,84,0.0,1.0,50,0.00,,,0.02,271.000000,,2013-07-06 15:11:00,
2013-07-06 08:22:00,85.0,64.0,29.71,East,88,0.0,1.0,49,0.00,,,0.02,390.000000,,2013-07-06 15:22:00,
2013-07-06 08:43:00,86.0,63.0,29.71,East,94,0.0,2.0,47,0.00,,,0.02,455.000000,,2013-07-06 15:43:00,
2013-07-06 08:52:00,87.0,64.0,29.70,SSE,162,0.0,1.0,46,0.00,,,0.02,527.000000,,2013-07-06 15:52:00,
2013-07-06 09:11:00,89.0,64.0,29.70,SW,215,0.0,3.0,44,0.00,,,0.02,585.000000,,2013-07-06 16:11:00,
2013-07-06 09:33:00,90.0,64.0,29.70,SW,232,1.0,4.0,43,0.00,,,0.02,628.000000,,2013-07-06 16:33:00,
2013-07-06 09:43:00,90.0,64.0,29.70,SW,232,1.0,4.0,43,0.00,,,0.02,628.000000,,2013-07-06 16:43:00,
2013-07-06 10:12:00,91.0,63.0,29.70,SW,231,2.0,6.0,39,0.00,,,0.02,584.000000,,2013-07-06 17:12:00,
2013-07-06 10:38:00,91.0,63.0,29.70,WSW,240,1.0,6.0,39,0.00,,,0.02,782.000000,,2013-07-06 17:38:00,
2013-07-06 10:55:00,93.0,61.0,29.70,WNW,284,2.0,6.0,35,0.00,,,0.02,828.000000,,2013-07-06 17:55:00,
2013-07-06 11:02:00,93.0,62.0,29.69,WNW,286,2.0,6.0,36,0.00,,,0.02,831.000000,,2013-07-06 18:02:00,
2013-07-06 11:22:00,94.0,61.0,29.69,WNW,292,1.0,5.0,34,0.00,,,0.02,858.000000,,2013-07-06 18:22:00,
2013-07-06 11:43:00,96.0,62.0,29.68,WSW,240,1.0,5.0,33,0.00,,,0.02,889.000000,,2013-07-06 18:43:00,
2013-07-06 11:53:00,96.0,62.0,29.68,WSW,240,1.0,5.0,33,0.00,,,0.02,889.000000,,2013-07-06 18:53:00,
2013-07-06 12:02:00,97.0,62.0,29.67,SW,220,3.0,8.0,32,0.00,,,0.02,905.000000,,2013-07-06 19:02:00,
2013-07-06 12:12:00,97.0,60.0,29.67,SSW,200,2.0,8.0,30,0.00,,,0.02,914.000000,,2013-07-06 19:12:00,
2013-07-06 12:22:00,98.0,62.0,29.66,North,353,3.0,7.0,31,0.00,,,0.02,923.000000,,2013-07-06 19:22:00,
2013-07-06 12:35:00,98.0,62.0,29.66,North,353,3.0,7.0,31,0.00,,,0.02,923.000000,,2013-07-06 19:35:00,
2013-07-06 13:23:00,102.0,59.0,29.63,West,265,4.0,9.0,25,0.00,,,0.02,930.000000,,2013-07-06 20:23:00,
2013-07-06 13:34:00,102.0,61.0,29.62,WSW,253,4.0,12.0,26,0.00,,,0.02,879.000000,,2013-07-06 20:34:00,
2013-07-06 13:53:00,102.0,59.0,29.62,SW,224,5.0,12.0,25,0.00,,,0.02,914.000000,,2013-07-06 20:53:00,
2013-07-06 14:23:00,104.0,58.0,29.60,WSW,241,3.0,11.0,22,0.00,,,0.02,861.000000,,2013-07-06 21:23:00,
2013-07-06 14:34:00,103.0,57.0,29.59,West,262,4.0,11.0,22,0.00,,,0.02,854.000000,,2013-07-06 21:34:00,
2013-07-06 14:43:00,103.0,57.0,29.59,West,275,4.0,11.0,22,0.00,,,0.02,842.000000,,2013-07-06 21:43:00,
2013-07-06 14:53:00,104.0,56.0,29.59,SW,218,4.0,9.0,21,0.00,,,0.02,837.000000,,2013-07-06 21:53:00,
2013-07-06 15:02:00,103.0,55.0,29.58,West,267,4.0,10.0,21,0.00,,,0.02,826.000000,,2013-07-06 22:02:00,
2013-07-06 15:22:00,105.0,57.0,29.57,West,280,4.0,10.0,21,0.00,,,0.02,791.000000,,2013-07-06 22:22:00,
2013-07-06 15:34:00,104.0,56.0,29.57,SW,230,3.0,10.0,21,0.00,,,0.02,758.000000,,2013-07-06 22:34:00,
2013-07-06 15:44:00,103.0,55.0,29.56,South,178,1.0,8.0,21,0.00,,,0.02,722.000000,,2013-07-06 22:44:00,
2013-07-06 15:53:00,104.0,56.0,29.55,South,186,3.0,10.0,21,0.00,,,0.02,652.000000,,2013-07-06 22:53:00,
2013-07-06 16:02:00,105.0,56.0,29.55,South,178,3.0,10.0,20,0.00,,,0.02,650.000000,,2013-07-06 23:02:00,
2013-07-06 16:11:00,104.0,56.0,29.54,SSE,166,4.0,10.0,21,0.00,,,0.02,221.000000,,2013-07-06 23:11:00,
2013-07-06 16:34:00,105.0,56.0,29.54,SW,217,5.0,13.0,20,0.00,,,0.01,587.000000,,2013-07-06 23:34:00,
2013-07-06 17:21:00,102.0,58.0,29.53,West,262,3.0,9.0,24,0.00,,,0.00,156.000000,,2013-07-07 00:21:00,
2013-07-06 17:33:00,101.0,57.0,29.52,WSW,258,4.0,11.0,24,0.00,,,0.00,172.000000,,2013-07-07 00:33:00,
2013-07-06 18:11:00,100.0,57.0,29.53,SW,218,4.0,11.0,24,0.00,,,0.00,111.000000,,2013-07-07 01:11:00,
2013-07-06 18:23:00,100.0,57.0,29.53,SW,218,4.0,11.0,24,0.00,,,0.00,111.000000,,2013-07-07 01:23:00,
2013-07-06 18:32:00,100.0,57.0,29.53,SW,218,4.0,11.0,24,0.00,,,0.00,111.000000,,2013-07-07 01:32:00,
2013-07-06 18:44:00,100.0,57.0,29.53,West,281,4.0,10.0,24,0.00,,,0.00,111.000000,,2013-07-07 01:44:00,
2013-07-06 18:52:00,100.0,57.0,29.53,West,281,4.0,10.0,24,0.00,,,0.00,111.000000,,2013-07-07 01:52:00,
2013-07-06 19:04:00,100.0,57.0,29.53,West,281,4.0,10.0,24,0.00,,,0.00,111.000000,,2013-07-07 02:04:00,
2013-07-06 19:59:00,99.0,59.0,29.54,West,270,4.0,9.0,27,0.00,,,0.00,62.000000,,2013-07-07 02:59:00,
2013-07-06 20:04:00,99.0,59.0,29.54,West,270,4.0,9.0,27,0.00,,,0.00,62.000000,,2013-07-07 03:04:00,
2013-07-06 20:21:00,99.0,59.0,29.54,WNW,282,3.0,9.0,27,0.00,,,0.00,60.000000,,2013-07-07 03:21:00,
2013-07-06 20:44:00,99.0,59.0,29.54,NW,312,3.0,9.0,27,0.00,,,0.00,54.000000,,2013-07-07 03:44:00,
2013-07-06 21:01:00,99.0,59.0,29.54,NW,312,3.0,9.0,27,0.00,,,0.00,54.000000,,2013-07-07 04:01:00,
2013-07-06 21:11:00,98.0,58.0,29.54,West,277,4.0,9.0,27,0.00,,,0.00,54.000000,,2013-07-07 04:11:00,
2013-07-06 21:21:00,98.0,58.0,29.54,West,277,4.0,9.0,27,0.00,,,0.00,54.000000,,2013-07-07 04:21:00,
2013-07-06 21:31:00,98.0,58.0,29.55,West,272,4.0,8.0,27,0.00,,,0.00,54.000000,,2013-07-07 04:31:00,
2013-07-06 21:41:00,98.0,58.0,29.55,West,272,4.0,8.0,27,0.00,,,0.00,54.000000,,2013-07-07 04:41:00,
2013-07-06 21:51:00,98.0,58.0,29.55,West,272,4.0,8.0,27,0.00,,,0.00,54.000000,,2013-07-07 04:51:00,
2013-07-06 22:01:00,98.0,58.0,29.55,West,280,4.0,8.0,27,0.00,,,0.00,51.000000,,2013-07-07 05:01:00,
2013-07-06 22:11:00,98.0,58.0,29.55,West,280,4.0,8.0,27,0.00,,,0.00,51.000000,,2013-07-07 05:11:00,
2013-07-06 22:21:00,98.0,58.0,29.55,West,280,4.0,8.0,27,0.00,,,0.00,51.000000,,2013-07-07 05:21:00,
2013-07-06 22:31:00,90.0,60.0,29.62,West,269,3.0,9.0,37,0.00,,,0.00,0.000000,,2013-07-07 05:31:00,
2013-07-06 22:41:00,90.0,60.0,29.62,West,269,3.0,9.0,37,0.00,,,0.00,0.000000,,2013-07-07 05:41:00,
2013-07-06 22:51:00,88.0,60.0,29.61,West,262,0.0,0.0,39,0.00,,,0.00,0.000000,,2013-07-07 05:51:00,
2013-07-06 23:01:00,88.0,61.0,29.60,West,262,0.0,1.0,40,0.00,,,0.00,0.000000,,2013-07-07 06:01:00,
2013-07-06 23:11:00,88.0,61.0,29.60,SW,229,0.0,3.0,40,0.00,,,0.00,0.000000,,2013-07-07 06:11:00,
2013-07-06 23:21:00,87.0,61.0,29.61,SSE,159,0.0,4.0,42,0.00,,,0.00,0.000000,,2013-07-07 06:21:00,
2013-07-06 23:32:00,86.0,60.0,29.61,SSE,156,0.0,0.0,42,0.00,,,0.00,0.000000,,2013-07-07 06:32:00,
2013-07-06 23:43:00,86.0,60.0,29.61,SE,132,0.0,3.0,42,0.00,,,0.00,0.000000,,2013-07-07 06:43:00,
2013-07-06 23:52:00,86.0,60.0,29.60,SE,132,0.0,3.0,42,0.00,,,0.00,0.000000,,2013-07-07 06:52:00,